Wind_Speed
31 28 28 28 29 29 28 28 27 26 25 23 21 20 19 18 18 17 16 15 15 14 14 13 13 13 13 14 14 14 14 14 13 12 12 11 11 11 12 12 13 13 12 11 11 12 13 14 14 14 14 15 15 15 15 15 15 15 14 13 14 14 13 13 13 13 14 14 13 13 13 12 12 12 13 13 13 13 14 14 14 14 15 14 13
36 32 30 29 30 29 28 28 27 26 25 24 22 20 19 18 18 17 16 15 14 14 14 13 13 13 13 13 14 14 14 13 13 12 11 11 11 11 11 12 13 13 12 11 12 13 14 14 14 14 14 15 15 15 15 15 15 15 14 13 13 13 13 13 13 13 13 11 10 11 11 9 10 12 12 12 13 13 13 13 13 13 14 13 13
37 33 32 30 30 29 28 28 27 26 25 24 22 21 20 19 18 17 16 15 15 14 14 14 13 13 14 13 13 13 14 13 13 12 12 11 11 11 10 11 13 13 12 12 13 14 15 15 14 13 14 15 14 14 14 14 14 14 13 13 13 13 13 13 12 12 11 10 9 8 8 9 10 12 12 12 12 12 12 12 12 12 13 13 13
35 33 32 31 30 29 28 28 27 27 26 24 23 21 20 20 18 17 16 16 15 15 14 14 14 14 14 14 13 13 13 13 13 12 12 12 11 11 10 11 13 13 13 13 14 15 15 14 14 13 13 13 12 12 12 12 12 12 12 12 12 12 12 12 12 11 11 10 10 9 9 11 12 12 11 11 11 11 11 10 10 11 12 12 12
34 34 33 32 31 29 29 28 28 27 26 25 23 22 21 20 19 18 17 16 16 15 15 15 14 14 14 14 13 13 13 13 12 12 11 12 11 10 10 12 14 13 13 14 15 16 15 14 13 12 12 11 11 10 10 10 10 11 12 11 11 12 12 12 11 10 10 11 11 10 10 11 12 12 11 11 11 11 10 10 10 10 10 10 11
34 34 33 32 32 30 29 28 28 27 26 25 23 22 21 20 19 18 17 17 16 15 15 15 15 14 14 14 13 13 13 12 12 11 11 11 11 11 11 13 14 14 15 15 16 15 13 12 11 10 9 9 9 8 8 9 10 11 11 11 11 12 12 12 10 10 11 12 13 12 10 10 12 12 12 11 11 11 11 11 10 9 10 10 10
32 33 33 32 31 30 30 29 28 27 26 25 24 23 22 21 20 19 18 17 16 15 15 15 15 15 15 14 13 13 13 12 11 11 11 11 11 12 13 14 14 14 15 15 14 13 11 10 8 7 7 7 7 7 8 10 12 12 12 11 11 11 11 11 10 11 12 14 14 13 11 10 11 12 12 11 11 11 10 10 9 9 9 9 9
31 32 32 32 31 30 30 29 28 28 27 26 24 23 22 21 20 19 19 18 16 16 15 15 16 16 15 14 13 13 12 11 10 10 11 11 11 12 14 14 14 14 14 14 13 11 9 7 5 5 5 7 8 9 10 11 12 13 13 12 11 11 11 11 11 12 14 15 15 14 11 9 8 10 11 10 10 10 9 9 9 8 8 8 8
31 31 31 31 30 30 29 29 28 28 27 26 25 24 23 22 21 20 19 18 17 16 15 16 16 16 15 14 13 12 11 10 10 10 11 11 10 11 14 15 14 13 13 13 11 9 8 6 5 5 7 9 11 12 12 12 12 12 12 12 11 11 12 12 12 13 15 16 17 15 12 10 9 8 9 9 8 8 8 8 7 7 7 7 7
30 29 30 30 30 30 29 29 28 28 27 26 25 24 23 22 21 20 19 18 17 16 16 16 16 15 14 13 12 11 10 9 9 10 10 10 9 12 14 15 14 13 12 12 10 9 8 7 6 7 11 13 15 15 14 13 12 12 11 11 10 11 12 12 12 13 15 16 16 16 14 11 10 9 7 7 6 6 6 6 6 6 6 6 7
28 29 29 30 30 29 29 29 28 28 27 27 26 25 24 23 22 21 19 18 17 16 16 16 16 15 13 12 11 10 9 8 8 8 8 9 9 12 14 15 14 13 12 11 10 9 9 9 9 11 15 16 17 16 14 13 12 11 9 9 8 8 9 10 11 13 14 15 16 16 15 13 10 9 8 7 7 6 6 6 6 7 7 7 7
28 28 30 30 29 29 29 29 28 28 27 27 26 25 25 23 23 21 19 18 17 17 17 16 15 14 12 11 10 10 9 8 8 8 8 9 10 12 13 14 14 13 12 11 10 10 10 11 12 14 16 17 17 16 14 13 11 9 8 7 5 6 7 8 9 11 12 14 15 15 16 14 11 9 8 8 8 8 8 8 8 8 8 7 8
28 28 30 30 30 29 29 29 28 28 28 27 27 26 25 24 23 21 19 18 18 18 17 16 14 13 11 11 10 10 9 8 7 8 8 10 11 11 12 12 13 13 12 11 10 11 12 12 14 15 16 16 16 15 14 12 11 9 8 5 4 5 6 6 8 9 11 13 15 16 16 15 12 10 9 9 9 8 8 8 8 8 8 8 8
28 29 31 30 30 30 29 29 29 28 28 27 27 26 26 24 23 21 19 19 18 17 16 15 13 12 11 10 10 10 9 8 8 8 9 10 11 11 11 12 13 12 12 11 11 12 12 13 14 15 15 15 15 15 14 12 11 9 6 3 2 4 5 6 7 8 10 12 14 15 16 16 14 12 11 10 10 9 8 8 8 8 8 9 9
27 29 30 30 30 30 30 29 29 28 28 27 27 27 26 25 23 21 20 19 18 17 15 13 12 11 11 11 11 10 9 9 8 8 9 10 11 11 12 12 12 12 12 11 11 12 13 13 14 15 15 15 15 14 13 12 10 7 4 2 1 3 5 6 7 7 8 10 12 14 15 16 14 12 11 11 10 10 8 8 8 8 9 9 9
26 28 29 31 30 30 30 29 29 28 28 27 27 27 26 25 22 21 20 19 18 16 14 13 12 12 12 12 11 10 9 9 8 8 9 10 11 12 12 11 12 12 11 11 12 12 13 13 14 14 14 13 13 14 13 11 8 6 4 2 1 2 4 5 6 6 8 9 11 13 14 15 13 11 11 10 10 10 9 9 9 9 9 10 10
28 29 29 31 30 30 30 29 29 28 28 27 27 27 26 25 22 21 20 19 17 15 14 12 12 13 13 13 12 11 10 9 9 8 9 10 12 12 12 12 12 12 11 11 11 12 12 13 13 13 13 13 13 13 12 11 9 6 4 2 2 2 4 5 6 6 8 9 10 12 12 14 14 13 12 11 10 10 10 10 10 10 10 11 11
28 29 30 30 30 30 30 29 29 28 28 28 27 27 26 24 22 21 20 18 17 15 13 12 13 14 14 13 12 12 11 10 9 9 9 10 12 13 13 12 12 11 11 11 11 11 12 12 12 12 13 13 13 13 12 12 10 7 5 3 2 3 4 5 5 6 7 8 9 10 12 13 14 15 14 12 12 11 10 11 11 11 11 11 12
29 29 30 30 30 30 30 29 29 29 29 29 28 28 26 24 22 21 20 18 17 15 13 13 13 14 14 14 13 12 11 10 10 9 10 11 13 13 13 12 11 11 10 10 10 10 11 11 10 10 11 12 13 13 13 12 11 8 6 4 3 4 4 5 5 5 5 6 7 8 10 12 13 15 15 13 12 12 11 11 11 11 11 11 12
29 30 30 30 30 29 30 29 29 29 29 29 29 28 26 24 22 21 20 19 17 15 13 13 14 14 14 14 13 12 11 10 10 10 10 11 12 13 12 12 11 10 9 9 9 9 9 9 8 8 9 9 11 12 13 12 12 10 7 5 4 4 5 5 6 6 5 6 7 7 9 10 12 13 14 14 13 13 13 12 12 12 12 12 12
31 30 30 30 30 29 30 29 29 29 29 30 29 29 26 24 23 22 21 19 17 15 14 13 14 15 14 13 12 11 11 10 11 11 10 11 11 12 12 11 10 9 8 8 8 8 8 7 7 7 7 7 7 10 12 13 13 11 9 7 4 4 5 6 8 7 7 8 9 8 8 9 10 11 13 14 14 14 14 14 14 14 13 13 13
32 32 31 30 30 29 30 28 29 29 29 30 29 29 26 25 24 23 21 19 18 16 14 13 14 15 14 14 13 12 11 11 11 11 10 10 10 11 11 11 10 9 7 7 6 6 6 6 5 5 5 5 5 7 10 13 13 11 10 8 5 4 6 8 8 8 9 11 11 9 9 10 11 11 12 13 14 14 14 15 15 15 14 14 14
34 34 32 31 30 29 29 28 29 29 30 30 29 28 26 26 25 23 22 20 19 16 14 14 14 15 15 15 14 13 12 11 11 10 10 10 10 10 10 9 9 8 7 6 5 4 4 4 4 4 4 4 4 5 7 11 12 11 10 8 7 6 8 9 9 10 11 13 13 11 10 10 11 12 13 14 14 14 14 15 15 15 14 14 14
35 34 33 31 30 29 29 29 29 29 30 30 29 27 26 26 25 24 23 21 19 16 15 14 15 16 16 16 15 14 13 12 12 11 10 9 9 9 9 8 7 7 6 5 4 3 3 3 3 3 3 3 4 4 5 8 10 10 9 8 7 8 8 8 9 10 12 13 13 13 12 12 12 13 14 15 15 15 15 15 16 16 14 14 14
35 34 33 32 30 30 29 29 29 30 31 29 29 27 26 27 25 24 23 21 18 16 15 14 16 17 16 16 15 14 13 12 12 11 10 8 8 8 8 7 7 6 5 5 4 3 3 3 2 2 3 3 3 4 4 6 7 7 7 8 7 7 7 8 8 9 11 13 13 13 14 14 15 15 15 16 17 17 16 16 16 16 16 15 14
35 34 33 31 31 31 29 30 30 30 31 29 29 27 26 27 26 25 23 21 19 17 16 16 17 17 17 16 14 14 13 13 12 12 11 9 8 7 7 6 6 6 5 6 5 5 5 5 5 4 4 4 4 5 5 6 6 7 7 7 7 8 9 10 9 9 9 11 13 14 14 15 16 16 17 18 18 18 18 17 17 17 17 16 15
35 33 32 31 31 30 30 30 30 31 31 29 29 28 27 27 26 25 23 21 20 18 17 17 17 17 16 15 13 12 12 12 12 12 12 10 9 8 7 6 6 5 5 5 5 6 5 5 5 6 6 5 5 6 6 6 7 8 8 9 9 9 11 12 11 11 10 11 13 14 15 16 16 17 18 18 18 18 18 18 18 18 18 17 17
34 33 32 31 31 30 30 31 30 31 31 30 30 29 28 28 26 25 23 22 21 20 19 18 18 17 15 14 13 12 11 12 12 11 11 9 9 8 8 8 7 6 5 5 6 7 6 5 5 6 6 6 5 6 6 7 7 9 10 10 10 10 11 12 12 12 13 13 13 14 16 17 18 18 19 19 19 19 19 18 18 19 19 19 19
33 33 33 32 31 30 30 30 30 30 30 30 30 29 28 28 26 25 24 23 21 21 20 18 18 17 15 14 13 13 12 12 11 10 9 8 8 8 8 7 7 6 5 5 6 6 6 5 6 6 6 6 6 6 7 8 9 10 11 12 12 12 12 12 12 13 14 14 15 15 16 17 19 20 20 20 20 21 20 20 20 20 20 20 19
33 33 33 32 31 30 30 30 29 29 29 29 30 29 28 28 27 25 24 24 22 22 20 19 18 17 15 14 13 13 13 12 11 9 8 7 7 7 6 5 5 5 4 4 3 3 3 4 5 5 5 6 7 8 9 10 10 11 13 14 15 15 15 14 13 13 14 14 15 15 16 18 19 20 20 20 21 21 22 21 21 21 21 21 19
34 34 34 33 32 31 30 29 28 28 29 29 29 28 27 28 27 25 25 24 23 22 20 19 18 16 15 13 13 12 11 11 9 8 7 6 7 7 5 4 3 3 3 2 2 2 3 5 6 7 8 9 10 11 12 13 14 14 15 16 17 18 18 17 16 15 15 15 16 16 17 18 20 21 21 21 21 22 22 22 22 23 23 21 20
35 34 34 34 32 31 30 29 29 29 29 28 27 26 27 28 27 26 25 24 23 22 20 19 17 16 14 13 12 11 9 8 7 7 5 5 7 6 4 3 3 3 3 3 3 4 5 6 8 9 11 12 14 15 15 16 16 17 17 18 18 19 19 20 20 19 19 19 19 19 19 20 21 21 21 22 21 22 22 23 23 24 24 22 20
36 35 35 35 33 32 30 30 30 29 28 27 25 25 26 27 27 26 25 25 24 22 20 19 17 15 14 13 11 10 8 6 5 5 4 4 4 4 3 3 3 4 4 5 5 6 6 8 9 11 12 13 14 16 16 17 17 17 17 17 17 17 18 19 20 21 21 21 21 21 21 21 22 22 22 22 22 22 22 23 24 25 26 25 21
37 37 36 36 34 33 32 31 30 29 27 26 25 25 26 27 26 26 25 25 25 23 20 19 18 16 14 13 11 10 8 6 5 4 4 3 3 3 3 4 5 6 7 7 8 8 8 9 11 11 12 13 14 15 16 17 16 16 16 16 16 16 16 17 18 20 20 20 20 21 21 21 21 22 22 22 22 22 22 23 25 26 27 26 24
37 37 37 37 35 34 32 32 30 28 28 27 26 25 26 27 26 26 26 25 24 22 21 19 18 17 15 14 11 10 9 7 6 5 4 4 3 4 5 7 8 8 8 9 9 9 10 10 11 11 11 12 14 14 15 15 14 14 14 14 15 15 15 15 16 16 17 18 18 19 20 20 21 21 21 21 22 21 21 22 24 26 27 27 26
35 36 36 36 35 34 33 32 30 29 29 28 27 26 27 27 27 26 25 25 23 22 21 19 18 17 15 13 11 11 10 9 7 6 5 5 5 6 7 8 9 9 9 9 9 10 10 10 10 11 11 11 12 12 12 12 13 13 14 14 15 15 15 15 15 15 15 16 17 17 18 18 19 19 19 19 20 20 19 21 23 26 26 27 27
31 32 34 35 34 34 33 32 30 29 29 28 28 28 28 28 27 26 25 25 23 21 20 19 18 16 15 14 13 12 11 11 10 8 7 7 7 8 8 9 9 9 9 9 9 10 10 10 9 10 10 10 10 10 11 12 13 13 14 14 15 15 16 15 15 15 15 16 16 16 16 16 17 18 18 18 18 18 19 21 23 25 25 26 25
27 26 30 32 33 34 32 30 28 28 28 28 29 28 29 29 27 26 25 24 23 21 19 19 18 15 14 14 14 13 13 13 12 10 9 9 9 9 9 10 10 10 9 9 9 9 9 9 8 8 8 8 8 10 12 13 13 14 14 14 14 15 15 15 15 15 16 16 16 16 16 17 18 18 18 19 19 19 20 21 22 23 25 25 25
24 23 28 31 32 32 30 28 27 26 26 28 29 29 29 29 27 26 25 24 22 21 19 18 16 14 14 14 13 13 13 14 13 12 11 10 10 10 10 10 9 9 9 8 8 7 7 6 6 6 7 8 10 12 14 15 16 17 17 16 16 15 15 15 15 16 16 16 16 16 17 17 18 18 19 20 21 21 21 22 22 23 24 24 24
27 28 31 31 32 31 29 27 26 25 26 28 30 30 30 29 28 27 25 24 23 21 19 17 15 13 13 13 12 12 12 13 13 13 12 11 11 10 11 11 9 9 8 6 6 6 6 6 6 8 9 10 12 14 16 17 18 19 19 18 17 16 16 15 14 15 15 15 15 15 16 16 16 17 18 19 20 21 22 22 23 23 23 23 23
32 33 33 29 28 29 28 27 26 26 28 30 31 31 32 31 30 29 27 25 24 22 20 18 16 14 13 13 13 13 13 13 13 12 12 11 12 12 12 11 9 9 8 6 6 6 7 8 9 10 11 12 13 14 16 18 20 21 21 20 19 18 17 15 15 14 13 12 13 14 14 15 16 16 18 19 19 20 20 21 21 22 23 22 22
35 35 34 30 29 29 28 28 26 27 30 30 31 31 31 31 31 30 27 25 24 23 20 19 17 14 14 14 14 14 13 13 13 11 10 12 12 12 12 10 8 9 8 7 7 7 8 10 11 11 12 13 13 15 17 19 20 22 24 24 23 21 17 15 13 11 10 12 13 13 13 14 15 15 16 17 17 18 19 20 21 22 22 22 22
37 36 35 34 34 31 28 29 30 30 30 30 31 31 30 29 28 27 26 26 24 22 20 18 16 15 15 15 16 15 14 14 12 9 9 11 11 11 11 9 9 10 8 7 8 8 10 12 12 13 13 14 15 16 18 19 20 21 22 22 23 23 18 14 10 10 13 14 11 11 13 14 15 15 16 16 17 18 19 20 21 22 22 22 22
38 36 37 37 35 29 28 30 32 33 32 30 30 30 29 28 26 24 24 25 24 22 21 19 17 17 18 18 17 15 14 14 11 9 9 9 9 10 9 9 9 9 8 9 9 10 11 12 14 15 15 15 16 16 17 17 18 18 17 17 18 17 14 15 18 18 16 13 12 13 14 14 15 17 17 18 18 19 19 19 20 21 21 21 22
39 38 40 40 34 30 30 32 34 35 33 32 31 30 29 28 27 26 26 26 25 23 23 21 20 20 20 19 17 14 14 13 11 10 9 8 9 10 9 9 8 9 10 10 10 11 12 13 14 15 16 16 16 16 15 15 15 15 14 14 12 11 14 20 23 21 17 16 17 17 16 15 17 18 18 19 19 20 20 19 19 18 19 19 20
40 40 42 40 35 32 33 34 36 37 35 34 33 32 30 29 30 30 29 28 27 26 24 23 22 21 20 18 16 15 14 14 12 11 10 10 10 9 9 8 8 10 11 11 11 13 13 14 15 16 17 17 17 16 15 15 14 13 12 11 10 12 17 21 21 20 22 22 20 19 19 18 18 18 18 19 19 20 20 21 20 18 17 18 19
40 41 42 39 36 34 33 34 37 38 38 38 36 34 32 31 30 30 30 29 28 26 23 22 22 20 19 18 16 16 16 15 13 11 12 11 10 9 9 8 8 10 12 12 13 14 14 15 16 17 17 17 18 17 17 16 14 13 12 12 12 13 16 18 19 21 24 25 24 22 21 20 19 18 17 18 19 19 20 21 21 19 18 17 18
40 42 42 41 39 37 35 36 38 39 40 40 38 36 35 33 31 30 30 28 26 24 22 22 21 20 19 17 16 18 18 15 13 12 13 12 11 10 9 9 10 11 12 13 14 15 15 16 16 17 17 18 19 18 17 17 16 14 13 12 13 13 14 15 16 17 20 25 28 26 24 23 22 19 18 18 19 19 21 21 21 20 19 17 16
41 43 44 44 43 42 39 39 40 41 41 40 39 37 35 33 32 30 30 28 25 22 21 22 22 20 19 18 18 19 18 14 13 13 12 13 12 10 10 10 10 11 12 13 14 15 16 16 16 17 17 18 17 17 16 16 15 14 13 13 13 13 14 14 14 15 17 21 26 28 28 27 26 22 19 19 20 19 19 20 20 19 19 17 16
42 43 45 46 45 44 43 42 42 42 42 40 39 37 34 33 32 31 29 28 25 23 22 22 22 21 19 19 19 19 17 15 14 13 13 13 12 11 10 10 11 11 13 14 14 15 16 16 17 17 16 16 15 15 14 13 12 11 11 12 12 13 15 15 16 17 18 20 23 26 26 27 29 26 22 21 21 19 16 16 17 17 17 17 16
44 44 46 46 46 45 44 43 43 43 42 40 38 35 32 32 33 31 27 25 24 23 24 24 23 21 20 20 20 19 18 16 16 15 15 14 13 12 10 10 11 12 13 14 14 15 16 17 17 16 15 14 13 13 12 12 11 11 11 11 11 12 13 15 17 18 19 20 21 23 24 25 28 28 25 23 22 19 16 14 15 16 15 15 15
Wind_Direction
173 174 175 175 176 172 165 162 161 161 161 160 159 156 153 150 148 147 147 145 142 142 143 144 144 143 140 137 136 134 134 133 132 129 127 125 122 119 114 110 112 114 115 115 115 114 111 108 106 105 102 101 98 94 93 94 95 97 96 96 96 98 96 95 96 95 93 90 90 87 85 85 89 94 94 94 93 95 97 96 94 93 93 92 92
169 172 175 174 176 171 165 162 162 163 161 161 160 158 155 151 150 149 149 146 144 144 144 145 145 145 143 139 138 137 136 136 134 132 130 128 125 121 116 111 112 115 116 118 118 115 111 107 105 105 104 103 97 91 90 91 93 96 97 98 98 98 96 94 92 90 88 86 86 87 90 93 96 100 100 98 95 96 97 97 98 97 96 96 97
165 169 172 173 174 170 166 163 163 163 161 161 160 159 156 153 152 151 150 148 146 145 146 146 147 147 146 142 140 140 138 137 135 134 133 131 127 124 118 113 115 118 119 122 122 116 111 107 106 107 108 106 98 92 90 90 91 95 99 101 100 97 96 92 89 85 80 76 72 77 95 106 103 104 106 104 101 102 102 103 103 99 98 99 99
165 168 170 172 173 170 166 164 164 163 162 161 161 160 157 155 153 153 151 150 148 147 148 147 149 150 148 146 142 141 140 137 135 135 135 134 130 127 120 116 122 124 124 125 122 115 111 110 109 109 110 108 101 95 90 88 92 99 103 103 102 99 96 91 86 82 75 69 65 69 90 101 102 105 108 108 107 105 106 107 106 102 101 100 98
167 167 170 171 171 170 167 165 165 164 162 161 162 161 157 156 155 154 153 152 151 150 150 150 152 153 152 150 145 143 142 140 137 136 136 136 134 131 124 123 130 128 127 127 121 116 114 113 113 113 112 110 106 99 92 92 101 107 105 103 103 101 96 88 82 79 75 71 66 71 85 95 100 104 105 106 106 103 104 104 104 102 102 100 95
169 168 171 171 170 169 167 165 165 165 163 162 162 161 159 158 157 156 155 154 154 152 152 152 154 156 155 152 148 146 144 142 138 136 135 137 137 133 129 132 134 130 130 128 124 121 119 119 120 123 123 123 119 110 100 102 112 111 107 104 103 101 95 89 84 79 75 69 64 67 80 94 100 102 101 99 99 97 96 96 96 95 95 94 90
172 170 171 171 170 169 168 166 166 166 163 163 162 162 161 159 158 157 157 156 156 155 154 154 156 157 156 153 149 147 144 141 136 133 132 134 137 136 136 139 138 135 135 132 129 128 125 125 127 135 143 145 139 124 112 111 113 111 111 108 105 104 97 93 92 80 71 65 62 63 73 89 98 100 99 95 92 91 89 88 88 88 87 84 81
175 173 172 171 171 169 168 167 167 167 165 163 162 162 162 161 160 159 159 158 158 156 155 155 156 157 156 153 148 148 144 139 133 130 131 131 133 138 143 146 144 140 139 137 135 133 129 128 132 147 155 154 146 130 121 117 114 113 112 108 105 104 103 101 94 79 69 63 60 59 63 69 80 92 94 92 90 89 87 86 87 88 84 79 76
176 175 173 171 171 170 168 168 168 168 166 164 163 164 163 162 161 161 160 160 160 157 157 157 156 157 156 152 149 148 145 139 133 128 131 129 127 138 147 150 148 145 143 141 140 136 128 125 132 139 143 144 139 132 128 122 117 115 110 106 101 100 104 101 89 76 67 63 58 53 51 49 47 62 78 83 84 83 83 83 84 83 78 74 70
177 175 174 173 172 170 168 169 170 169 167 165 164 165 164 163 163 162 162 161 160 159 158 158 157 158 156 153 151 150 147 142 137 132 132 130 126 135 145 151 152 150 148 146 143 134 123 121 125 128 132 135 135 134 132 126 120 116 108 101 94 92 92 86 78 71 64 60 54 47 42 40 34 36 51 64 68 68 66 65 64 62 58 56 51
177 177 176 174 173 171 170 171 171 170 168 166 166 165 165 164 164 163 163 162 161 160 159 159 158 158 157 155 154 153 150 146 143 140 138 135 130 136 145 152 157 155 152 149 141 129 121 121 126 126 129 132 134 136 134 128 122 113 104 95 87 83 79 72 67 63 61 56 50 45 39 35 30 26 30 36 38 39 37 35 34 34 33 34 33
178 179 177 175 174 173 172 172 172 171 169 168 167 166 165 165 165 165 164 163 162 160 160 160 160 160 159 158 156 154 152 151 149 146 143 139 136 141 148 152 156 156 153 148 138 126 122 126 130 130 131 133 135 137 134 128 120 112 104 97 90 84 77 66 58 54 52 50 46 40 33 29 27 24 23 23 19 19 19 19 19 21 21 22 23
178 180 178 176 175 174 173 173 173 172 171 169 168 167 166 166 165 166 165 164 163 161 161 161 162 162 160 158 155 153 151 151 149 147 144 141 141 146 149 150 152 156 154 146 135 127 126 133 136 135 135 136 137 137 134 129 124 119 111 104 98 84 74 64 55 48 44 45 42 32 25 24 25 24 23 22 17 12 13 15 15 17 17 16 18
180 180 179 178 176 174 174 174 175 173 172 171 169 168 167 167 166 167 165 164 163 162 162 162 163 161 158 155 152 149 147 147 149 150 147 144 144 147 151 152 154 155 151 143 135 129 131 139 142 141 139 138 139 137 135 133 131 125 118 123 114 77 64 58 52 44 42 42 39 28 21 19 20 24 24 25 21 15 15 17 16 16 13 13 14
182 180 179 179 177 175 175 176 176 174 173 172 170 169 168 167 167 167 165 163 163 162 163 163 162 157 153 151 148 146 145 148 150 153 150 144 144 148 151 152 153 151 147 141 134 131 136 145 148 147 145 144 143 141 139 136 135 132 132 154 186 66 57 53 48 40 40 38 33 24 16 15 15 19 20 20 20 16 15 13 13 13 12 12 12
182 182 180 179 179 176 175 176 177 176 174 172 171 170 169 168 168 167 164 163 162 162 163 162 159 154 151 149 147 146 147 149 149 154 150 144 146 149 150 150 151 148 144 139 135 134 139 147 153 154 152 152 150 148 145 141 142 145 147 174 277 21 39 40 40 32 29 30 28 18 14 16 14 11 10 11 13 12 10 7 8 9 11 11 12
182 182 181 180 180 178 176 176 177 177 175 173 172 171 169 169 168 166 163 162 161 161 161 158 156 152 150 149 148 149 148 149 148 152 151 145 146 149 149 150 150 146 144 141 136 135 138 146 154 160 161 160 158 156 154 149 152 159 164 192 284 338 9 14 22 21 19 22 22 15 13 17 14 6 1 1 3 5 5 3 5 5 8 9 9
182 182 182 182 182 180 177 176 177 177 175 174 173 172 170 169 168 165 162 162 161 159 158 155 155 152 152 152 151 151 148 147 147 151 152 146 146 148 151 151 150 147 147 144 139 137 136 140 148 160 168 169 167 166 164 160 160 169 180 198 269 308 344 358 9 14 12 15 16 10 7 11 11 5 358 355 355 356 358 358 358 0 4 6 5
183 183 183 184 184 181 178 177 177 176 175 174 174 172 170 170 167 164 162 163 162 159 156 154 156 153 154 155 154 152 147 147 147 151 151 147 147 149 151 152 152 149 150 147 142 141 137 137 140 149 163 174 178 177 175 171 169 174 190 207 250 287 322 341 350 358 356 357 2 4 3 2 5 5 360 354 351 349 350 350 351 354 360 3 2
183 185 185 186 185 182 180 178 177 175 176 174 173 171 170 170 167 165 164 164 162 158 155 155 157 156 157 156 154 152 149 151 150 152 150 146 147 148 151 152 151 150 151 151 147 145 141 139 139 142 151 166 180 186 186 182 179 181 194 210 243 277 307 327 334 338 335 335 342 352 356 354 356 358 357 354 349 345 343 343 343 347 352 356 357
183 186 187 187 185 183 181 179 177 175 176 174 174 171 169 170 167 166 166 165 163 160 158 158 160 159 158 156 154 154 153 154 153 153 151 147 147 147 148 149 148 150 153 156 155 152 148 145 144 146 146 152 169 185 191 191 190 190 197 211 235 269 300 318 323 323 321 323 328 336 340 342 344 346 349 349 346 342 339 338 339 341 345 349 350
184 185 186 187 185 183 182 180 177 176 176 175 174 171 170 170 169 168 168 167 166 163 161 161 162 160 158 158 158 160 158 155 154 155 155 152 149 148 148 149 150 153 159 162 164 161 156 153 150 149 150 154 163 177 190 195 198 199 203 210 221 256 295 310 315 312 309 312 316 322 328 330 332 335 337 340 340 337 336 336 337 337 341 345 346
184 184 184 185 185 184 183 180 178 176 176 176 174 172 171 171 171 171 170 169 168 165 163 162 163 162 161 162 164 165 161 155 153 153 157 156 154 153 153 154 155 158 163 167 169 168 162 159 155 153 154 163 171 176 185 195 203 207 209 214 228 263 293 308 315 316 313 309 306 308 317 322 322 325 327 330 332 331 331 332 333 333 335 340 341
184 183 183 183 184 185 184 181 180 178 177 177 174 173 172 173 174 174 173 171 169 164 164 164 164 166 165 165 167 166 163 158 155 153 154 156 157 160 162 164 166 169 172 178 181 180 179 173 164 164 167 171 176 177 183 191 201 210 218 230 251 277 297 311 321 329 329 322 310 303 305 310 312 315 318 320 322 322 323 324 326 327 328 330 332
183 183 184 183 183 185 185 182 182 179 178 178 175 175 175 175 176 176 176 172 168 165 164 166 167 169 167 167 167 165 163 160 159 157 155 155 156 159 165 170 176 181 189 199 206 212 226 235 226 225 220 217 208 201 197 192 200 216 231 242 260 282 295 304 318 330 333 331 324 314 308 305 306 308 311 312 314 315 315 316 318 319 319 320 323
184 184 184 184 184 186 185 183 183 180 180 180 178 179 178 177 178 178 177 172 168 166 165 165 167 168 167 167 166 164 163 161 163 162 159 157 157 158 162 167 176 187 200 206 213 223 234 247 248 246 240 235 230 223 212 205 220 241 253 261 274 286 288 288 295 308 315 320 322 322 318 312 310 310 311 312 311 311 309 309 311 311 311 313 315
185 184 184 184 186 186 186 186 184 182 182 183 182 181 181 181 180 179 176 172 168 167 163 161 163 166 166 163 161 164 164 163 165 165 163 160 160 162 163 165 173 186 201 206 211 214 219 228 226 226 226 231 223 214 211 218 242 259 268 275 282 291 292 285 284 293 300 305 310 312 315 316 314 313 313 314 313 311 308 307 307 307 306 307 309
185 184 185 185 186 187 187 188 186 184 185 186 186 185 183 182 181 179 176 173 170 167 163 160 161 164 163 159 158 163 163 161 161 163 162 159 163 166 168 172 179 185 191 197 205 207 212 217 218 222 229 241 235 223 224 239 261 273 279 282 286 293 296 289 284 288 295 301 302 302 306 309 311 311 311 311 311 310 309 308 308 307 305 304 305
187 186 186 186 186 186 187 189 188 187 188 188 189 189 185 182 182 180 176 174 172 167 165 163 164 165 164 159 159 163 162 158 155 157 157 157 168 172 173 179 184 187 188 196 204 209 219 228 230 231 240 257 259 252 253 264 275 281 287 293 296 297 297 295 288 286 290 294 295 296 299 301 304 305 306 306 307 307 306 305 306 307 304 301 300
189 188 188 187 186 186 186 189 189 190 191 191 192 192 186 182 183 181 177 175 172 169 169 167 167 169 167 163 163 164 162 160 156 157 158 160 172 175 174 180 185 188 195 205 208 222 246 255 254 252 262 277 282 282 280 281 283 285 290 293 295 294 294 296 294 290 288 287 288 291 294 295 297 299 300 301 301 302 301 301 301 303 303 300 297
192 191 190 188 186 185 185 187 189 191 193 193 194 192 187 184 183 182 179 176 173 173 172 171 172 172 170 170 171 170 168 166 162 164 168 171 176 176 172 171 189 200 207 217 228 276 287 289 289 293 297 297 297 296 293 292 289 288 288 288 288 287 287 288 290 290 288 286 285 286 288 289 292 294 296 297 298 298 298 297 297 298 298 297 294
195 194 191 190 187 185 185 185 188 192 194 194 194 192 189 187 184 182 180 178 177 176 176 176 177 177 176 177 178 178 177 169 159 159 163 169 177 179 179 187 219 230 237 260 274 284 288 295 302 305 302 298 297 295 294 294 292 288 284 282 283 282 282 282 284 286 286 287 286 287 287 288 290 291 292 293 295 296 295 294 295 294 293 292 291
197 195 192 191 189 186 186 187 189 192 195 195 194 194 192 188 185 183 181 181 181 180 182 181 182 185 185 184 184 186 188 173 150 143 141 151 178 192 207 229 248 262 272 278 280 283 288 293 296 295 292 290 290 290 289 289 289 287 284 281 281 281 281 279 280 281 282 284 285 286 287 288 289 290 291 292 294 294 293 292 291 290 291 292 292
197 194 195 194 191 189 187 188 190 191 193 194 194 194 193 189 186 185 184 184 185 184 186 186 187 192 193 193 190 191 196 187 165 154 153 161 197 221 248 261 266 274 279 279 278 278 280 282 282 282 283 285 287 287 287 286 285 284 282 280 279 279 280 280 279 278 279 281 283 284 286 287 289 290 292 293 293 293 291 290 288 287 289 291 292
199 197 197 195 192 191 190 190 190 190 193 194 194 194 192 190 187 188 188 188 188 188 190 190 192 195 197 198 196 198 204 202 189 179 180 189 214 234 244 251 258 265 269 271 271 271 271 272 274 275 277 281 284 286 287 287 287 285 283 281 279 280 281 282 280 279 280 281 283 285 287 288 290 291 294 295 295 295 292 290 288 286 286 289 289
203 201 199 197 194 193 193 192 191 192 193 193 193 193 191 190 189 190 190 190 191 193 195 195 196 197 199 200 202 208 211 214 210 200 205 214 226 234 236 243 251 256 259 261 262 264 266 268 270 271 274 277 278 279 283 286 288 288 288 287 287 288 287 287 286 284 283 284 286 288 288 289 290 291 294 295 298 301 297 291 286 285 286 287 288
206 205 201 199 197 196 195 195 194 193 193 193 191 191 191 189 190 191 192 194 194 197 199 198 200 200 198 201 205 210 214 218 219 215 218 221 227 234 237 244 250 254 257 258 260 262 264 266 267 269 274 278 277 277 282 286 288 289 289 290 290 290 292 293 292 289 287 286 287 288 287 288 289 290 291 292 295 297 296 293 290 290 290 288 288
205 208 207 203 201 198 196 195 195 194 194 193 190 188 189 188 190 193 194 196 198 199 201 199 201 200 196 198 202 207 212 215 217 220 224 223 226 233 238 244 253 259 257 253 255 254 257 260 261 268 277 285 291 292 292 293 296 296 294 292 293 295 296 295 293 291 289 288 287 288 288 289 289 289 289 290 291 291 293 296 296 296 295 293 292
199 202 210 211 206 198 193 191 191 193 192 190 188 185 185 188 192 195 196 199 200 200 201 201 203 201 197 198 199 204 207 208 213 220 224 225 228 233 237 245 254 251 238 235 246 248 252 263 272 285 295 302 307 305 303 304 305 305 303 302 302 301 300 299 295 291 290 289 289 290 290 291 291 292 292 292 292 291 293 296 296 296 295 294 293
199 196 202 208 209 198 188 189 188 188 187 186 184 182 183 187 191 195 197 199 199 199 202 206 207 205 204 201 199 200 201 202 208 217 224 227 231 236 241 246 246 233 221 226 246 254 265 283 295 300 303 307 310 308 307 306 306 304 301 301 301 300 300 299 295 292 291 288 289 293 293 293 293 295 296 294 293 293 293 295 296 295 293 291 289
198 200 198 198 206 201 189 188 188 186 185 184 182 183 185 188 192 195 197 197 197 199 204 208 211 211 209 205 202 203 204 205 207 213 223 229 234 241 245 243 233 225 226 236 251 266 286 297 303 305 305 306 308 307 305 305 305 304 301 298 297 298 298 295 292 291 287 286 294 297 294 295 297 299 299 298 298 297 297 297 297 296 294 293 289
197 202 201 190 192 197 196 194 192 189 186 184 184 187 191 193 195 196 197 197 198 201 205 208 210 211 208 204 205 206 208 212 211 213 224 233 237 241 241 235 228 230 238 252 267 283 293 298 301 303 304 304 305 304 303 305 308 309 309 307 304 303 300 299 295 285 280 291 302 300 298 303 306 307 306 305 304 302 300 298 296 296 295 294 291
199 202 203 192 183 187 197 200 200 195 189 189 190 193 194 196 198 198 199 201 203 204 205 208 211 208 203 200 202 205 207 213 212 211 226 234 235 232 231 228 231 238 245 257 269 281 289 294 297 298 299 302 305 305 305 308 310 313 315 315 315 313 313 314 304 290 295 304 307 305 307 312 313 312 311 309 307 303 300 297 295 294 294 293 292
201 201 198 193 185 183 194 203 206 201 196 196 197 197 196 196 198 201 204 207 208 208 206 209 211 205 200 197 201 201 204 212 205 199 216 225 224 220 221 227 239 250 258 262 268 276 283 289 294 297 300 302 304 304 306 309 313 318 320 321 321 319 320 323 315 308 311 316 316 314 314 315 315 316 315 314 312 309 303 299 297 295 294 293 291
201 199 193 190 188 185 192 203 207 204 201 201 201 201 198 196 197 201 206 209 210 211 210 210 207 202 199 198 200 200 205 209 192 183 200 210 217 218 220 231 246 262 270 275 282 289 292 294 298 300 303 305 304 304 306 309 313 318 320 321 323 318 317 320 319 314 314 318 319 319 319 319 318 319 319 319 316 313 308 303 302 298 295 295 294
200 198 193 190 189 187 190 199 204 203 201 202 203 203 201 200 201 203 206 208 210 211 211 207 201 198 197 198 200 201 207 204 185 184 200 208 218 223 228 240 255 267 278 288 296 301 303 302 302 302 303 303 302 303 304 306 309 310 309 310 309 305 309 315 318 315 313 316 317 319 322 322 320 321 322 321 317 312 309 306 305 302 297 297 296
200 198 193 191 191 188 190 197 202 201 200 202 204 205 206 206 208 210 211 211 211 211 208 203 199 196 196 198 198 200 206 201 188 195 210 216 225 234 244 259 274 283 291 296 297 299 299 298 299 299 301 302 302 302 303 304 307 305 302 301 299 299 304 311 317 319 318 317 316 318 322 322 321 324 325 324 320 315 310 307 307 306 302 298 296
198 196 194 193 194 192 193 197 199 199 201 203 205 207 209 210 212 215 215 214 212 209 205 200 197 196 197 196 193 199 204 200 198 209 219 227 234 242 257 276 290 295 295 294 294 294 294 295 297 300 303 305 304 303 303 303 305 305 303 302 302 303 306 309 314 319 321 319 317 318 322 323 323 327 332 330 328 324 315 310 309 308 307 303 297
197 198 196 194 195 195 197 199 198 199 201 204 206 209 211 213 214 213 211 210 210 209 206 200 196 195 196 193 193 200 203 200 209 222 229 237 240 247 265 281 290 293 291 290 291 292 293 294 297 300 302 303 303 302 303 302 303 305 304 303 305 307 309 310 313 318 320 317 315 318 324 325 324 328 335 334 332 330 321 314 311 309 308 306 301
199 200 198 196 196 198 199 199 199 200 203 205 207 210 212 213 210 206 205 206 207 207 204 199 197 195 193 192 195 201 203 204 214 226 235 241 245 254 267 277 283 287 288 290 291 291 293 295 297 298 299 299 299 300 301 299 297 295 295 300 307 313 316 317 318 319 317 314 315 317 319 320 320 324 333 333 331 333 330 322 315 310 307 305 304
200 199 198 197 198 200 200 199 200 201 203 205 208 210 211 209 204 202 202 204 205 203 200 198 196 193 192 195 199 201 203 209 218 227 237 243 247 254 264 276 284 289 291 292 294 294 295 297 297 297 297 298 299 300 299 294 291 289 292 298 301 307 315 317 316 316 316 315 314 312 313 318 318 319 326 329 329 332 336 334 324 317 312 307 305
Height
1490 1494 1497 1499 1502 1503 1505 1506 1507 1508 1510 1511 1512 1513 1514 1515 1516 1517 1517 1518 1518 1519 1520 1521 1522 1523 1524 1525 1526 1526 1527 1527 1528 1528 1529 1530 1530 1531 1531 1532 1533 1533 1534 1534 1535 1535 1535 1535 1535 1536 1536 1536 1537 1537 1537 1537 1537 1537 1537 1537 1537 1537 1537 1537 1537 1537 1537 1537 1537 1537 1537 1537 1537 1537 1537 1536 1536 1536 1536 1536 1536 1535 1535 1535 1535
1485 1491 1495 1498 1501 1503 1504 1505 1507 1508 1509 1510 1512 1513 1514 1515 1516 1517 1518 1519 1519 1520 1520 1522 1523 1524 1525 1526 1527 1527 1528 1528 1528 1529 1530 1530 1531 1532 1532 1533 1534 1534 1535 1535 1535 1536 1536 1536 1536 1536 1537 1537 1538 1538 1538 1538 1538 1538 1538 1538 1538 1538 1538 1539 1539 1538 1538 1538 1538 1538 1538 1538 1538 1538 1538 1537 1537 1537 1537 1537 1537 1537 1536 1536 1536
1486 1490 1493 1497 1500 1502 1503 1505 1506 1507 1509 1510 1512 1512 1514 1515 1516 1517 1518 1519 1519 1520 1521 1522 1523 1524 1525 1526 1527 1528 1528 1529 1529 1529 1530 1531 1532 1532 1533 1534 1535 1535 1535 1536 1536 1536 1536 1537 1537 1538 1538 1538 1538 1539 1539 1539 1539 1539 1539 1539 1539 1539 1539 1540 1540 1539 1539 1539 1539 1539 1539 1539 1539 1538 1538 1538 1538 1538 1538 1538 1538 1538 1537 1537 1537
1488 1491 1494 1496 1499 1501 1503 1504 1506 1507 1509 1510 1511 1512 1514 1515 1516 1518 1518 1520 1520 1521 1521 1523 1524 1525 1526 1527 1528 1528 1529 1529 1530 1530 1531 1531 1532 1533 1534 1535 1535 1536 1536 1537 1537 1537 1537 1538 1538 1539 1539 1539 1539 1539 1540 1540 1540 1540 1540 1540 1540 1540 1540 1540 1540 1540 1540 1540 1540 1540 1540 1539 1539 1539 1539 1539 1539 1539 1539 1539 1539 1539 1538 1538 1538
1488 1491 1494 1496 1498 1501 1502 1504 1506 1507 1508 1510 1511 1513 1514 1515 1517 1518 1519 1520 1521 1521 1522 1523 1524 1525 1527 1527 1528 1529 1530 1530 1530 1531 1531 1532 1533 1534 1534 1535 1536 1537 1537 1537 1538 1538 1538 1539 1539 1539 1540 1540 1540 1540 1540 1541 1541 1541 1541 1541 1541 1541 1541 1541 1541 1541 1541 1541 1541 1540 1540 1540 1540 1540 1540 1540 1540 1540 1540 1540 1540 1540 1539 1539 1539
1488 1491 1494 1496 1498 1500 1502 1503 1505 1507 1508 1510 1511 1513 1514 1516 1517 1518 1520 1521 1521 1522 1523 1524 1525 1526 1527 1528 1529 1529 1530 1531 1531 1531 1532 1533 1533 1534 1535 1536 1537 1537 1538 1538 1539 1539 1539 1540 1540 1540 1540 1540 1541 1541 1541 1541 1541 1541 1541 1541 1542 1542 1542 1542 1542 1542 1542 1541 1541 1541 1541 1541 1541 1541 1541 1541 1541 1540 1540 1541 1540 1540 1540 1540 1540
1489 1491 1493 1496 1498 1499 1502 1503 1505 1507 1508 1510 1511 1513 1515 1516 1517 1519 1520 1521 1522 1523 1523 1524 1525 1526 1527 1528 1529 1530 1531 1531 1532 1532 1532 1533 1534 1535 1536 1537 1537 1538 1538 1539 1539 1540 1540 1540 1541 1541 1541 1541 1541 1542 1542 1542 1542 1542 1542 1542 1542 1542 1542 1542 1543 1543 1542 1542 1542 1542 1542 1542 1542 1541 1542 1541 1541 1541 1541 1541 1541 1541 1541 1540 1540
1490 1492 1493 1496 1497 1499 1501 1503 1505 1506 1508 1510 1511 1513 1515 1516 1518 1519 1520 1521 1522 1523 1524 1525 1526 1527 1528 1529 1529 1530 1531 1532 1532 1532 1533 1534 1534 1535 1536 1537 1538 1539 1539 1540 1540 1540 1541 1541 1541 1541 1541 1541 1542 1542 1543 1543 1543 1543 1543 1543 1543 1543 1543 1543 1543 1543 1543 1543 1542 1542 1543 1543 1543 1542 1542 1542 1542 1542 1542 1542 1541 1541 1541 1541 1541
1492 1493 1495 1496 1497 1499 1501 1503 1505 1506 1508 1510 1511 1513 1515 1517 1518 1520 1521 1522 1523 1524 1524 1525 1527 1528 1529 1529 1530 1531 1531 1532 1532 1533 1534 1534 1535 1536 1536 1538 1539 1539 1540 1540 1541 1541 1541 1541 1541 1541 1541 1542 1542 1543 1543 1543 1543 1543 1544 1544 1544 1544 1544 1544 1544 1544 1544 1543 1543 1543 1543 1543 1543 1543 1543 1543 1543 1543 1542 1542 1542 1542 1541 1541 1541
1492 1495 1496 1497 1498 1499 1501 1503 1505 1507 1508 1510 1511 1513 1515 1517 1518 1520 1521 1522 1523 1524 1525 1526 1527 1528 1529 1530 1530 1531 1532 1532 1533 1534 1534 1535 1535 1536 1537 1538 1539 1540 1540 1541 1541 1542 1542 1542 1541 1541 1542 1542 1543 1544 1544 1544 1544 1544 1544 1544 1544 1544 1544 1545 1545 1544 1544 1544 1544 1544 1544 1544 1544 1544 1544 1543 1543 1543 1543 1542 1542 1542 1542 1542 1541
1493 1495 1497 1497 1498 1499 1501 1503 1505 1506 1508 1510 1511 1513 1515 1517 1519 1520 1522 1523 1524 1525 1526 1527 1528 1529 1529 1530 1531 1531 1532 1533 1533 1534 1535 1535 1536 1537 1538 1539 1540 1540 1541 1542 1542 1542 1542 1542 1542 1542 1543 1543 1544 1544 1545 1545 1545 1545 1545 1545 1545 1545 1545 1545 1545 1545 1545 1544 1544 1544 1545 1545 1544 1544 1544 1544 1544 1544 1543 1543 1543 1543 1542 1542 1542
1493 1495 1497 1498 1499 1500 1501 1503 1505 1506 1508 1510 1511 1513 1515 1517 1519 1520 1522 1523 1524 1525 1526 1527 1528 1529 1530 1530 1531 1532 1532 1533 1534 1534 1535 1535 1536 1537 1538 1539 1540 1541 1541 1542 1543 1543 1543 1543 1543 1543 1544 1544 1545 1545 1545 1546 1546 1546 1546 1545 1545 1545 1546 1546 1546 1546 1546 1545 1545 1545 1545 1545 1545 1545 1545 1545 1544 1544 1544 1544 1544 1543 1543 1543 1543
1493 1495 1497 1498 1499 1500 1501 1503 1505 1506 1508 1510 1511 1513 1515 1517 1519 1521 1522 1523 1524 1526 1527 1528 1529 1530 1530 1531 1531 1532 1533 1534 1534 1535 1535 1536 1536 1537 1539 1540 1540 1541 1542 1543 1543 1544 1544 1544 1544 1544 1545 1545 1546 1546 1546 1546 1546 1546 1546 1546 1546 1546 1546 1547 1547 1547 1546 1546 1546 1546 1546 1546 1546 1546 1545 1545 1545 1545 1544 1544 1544 1544 1544 1543 1543
1493 1495 1497 1498 1499 1500 1502 1503 1505 1507 1508 1510 1512 1514 1516 1518 1520 1521 1523 1524 1525 1526 1527 1529 1529 1530 1531 1531 1532 1533 1534 1534 1535 1535 1536 1536 1537 1538 1539 1540 1541 1542 1542 1543 1544 1544 1545 1545 1545 1545 1546 1546 1547 1547 1547 1547 1547 1547 1547 1547 1547 1547 1547 1547 1547 1547 1547 1547 1546 1547 1547 1546 1546 1546 1546 1545 1545 1545 1545 1544 1544 1544 1544 1543 1543
1493 1495 1497 1498 1499 1500 1502 1504 1505 1507 1508 1510 1512 1514 1516 1518 1520 1522 1523 1524 1526 1527 1528 1529 1530 1531 1531 1532 1533 1533 1534 1535 1536 1536 1536 1536 1537 1538 1539 1540 1541 1542 1543 1544 1544 1545 1545 1546 1546 1546 1547 1547 1547 1548 1548 1548 1548 1548 1548 1547 1547 1547 1548 1548 1548 1548 1548 1548 1547 1547 1547 1547 1547 1546 1546 1546 1545 1545 1545 1545 1544 1544 1544 1543 1543
1494 1495 1497 1498 1499 1500 1502 1504 1506 1508 1509 1511 1513 1515 1517 1519 1521 1522 1524 1525 1526 1528 1529 1530 1530 1531 1532 1532 1533 1534 1535 1535 1536 1536 1537 1537 1538 1539 1540 1541 1542 1543 1543 1544 1545 1545 1546 1546 1547 1547 1547 1548 1548 1548 1549 1549 1549 1549 1548 1548 1548 1548 1548 1548 1548 1548 1548 1548 1548 1548 1548 1547 1547 1547 1547 1546 1546 1545 1545 1545 1544 1544 1544 1543 1543
1494 1496 1497 1498 1499 1500 1501 1504 1506 1508 1510 1512 1514 1516 1518 1520 1522 1523 1525 1526 1527 1528 1529 1530 1531 1532 1532 1533 1534 1534 1535 1536 1536 1537 1537 1537 1538 1539 1540 1541 1542 1543 1544 1544 1545 1546 1546 1547 1547 1547 1548 1548 1549 1549 1549 1550 1550 1549 1549 1549 1548 1549 1549 1549 1549 1549 1549 1549 1548 1548 1548 1548 1547 1547 1547 1547 1546 1546 1545 1545 1544 1544 1544 1543 1543
1494 1496 1497 1498 1499 1500 1502 1504 1506 1508 1510 1513 1515 1517 1519 1521 1522 1524 1525 1527 1528 1529 1530 1530 1531 1532 1532 1533 1534 1535 1536 1536 1537 1537 1538 1538 1538 1539 1540 1542 1542 1543 1544 1545 1546 1546 1547 1547 1548 1548 1548 1549 1549 1550 1550 1550 1550 1550 1550 1550 1549 1549 1549 1549 1549 1549 1549 1549 1549 1549 1548 1548 1547 1547 1547 1547 1546 1546 1545 1545 1545 1544 1544 1543 1543
1493 1495 1497 1498 1499 1500 1502 1504 1506 1508 1511 1513 1515 1517 1520 1521 1523 1525 1526 1527 1528 1529 1530 1531 1531 1532 1533 1534 1534 1535 1536 1537 1537 1538 1538 1539 1539 1540 1541 1542 1543 1544 1545 1545 1546 1547 1547 1548 1548 1549 1549 1549 1550 1550 1551 1551 1551 1551 1551 1550 1550 1550 1550 1550 1550 1550 1549 1549 1549 1549 1548 1548 1547 1547 1547 1547 1546 1546 1546 1545 1545 1544 1544 1543 1543
1493 1495 1496 1498 1499 1501 1502 1504 1506 1509 1511 1513 1515 1517 1520 1522 1524 1525 1526 1528 1528 1529 1530 1531 1532 1532 1533 1534 1535 1535 1536 1537 1538 1538 1539 1539 1540 1540 1541 1542 1543 1544 1545 1546 1547 1547 1548 1548 1549 1549 1549 1550 1550 1551 1551 1551 1552 1552 1551 1551 1551 1550 1550 1550 1550 1550 1550 1549 1549 1548 1548 1548 1548 1547 1547 1547 1546 1546 1546 1545 1545 1544 1543 1543 1542
1492 1494 1496 1497 1499 1501 1502 1504 1507 1509 1511 1513 1516 1518 1520 1522 1524 1525 1527 1528 1529 1529 1530 1531 1532 1532 1533 1534 1535 1536 1537 1537 1538 1539 1540 1540 1540 1541 1542 1543 1544 1545 1546 1546 1547 1547 1548 1548 1549 1549 1550 1550 1550 1551 1551 1552 1552 1552 1552 1552 1551 1551 1551 1551 1551 1550 1550 1550 1549 1549 1548 1548 1547 1547 1547 1547 1546 1546 1545 1545 1544 1544 1543 1543 1542
1490 1493 1495 1497 1499 1501 1503 1505 1507 1509 1511 1513 1516 1518 1520 1522 1523 1525 1526 1527 1528 1529 1530 1531 1532 1533 1534 1534 1535 1536 1537 1538 1539 1539 1540 1541 1541 1542 1543 1543 1544 1545 1546 1547 1547 1548 1548 1549 1549 1550 1550 1550 1551 1551 1551 1552 1552 1552 1552 1552 1552 1552 1551 1551 1551 1550 1550 1550 1549 1549 1548 1548 1547 1547 1546 1546 1546 1545 1545 1544 1544 1543 1543 1542 1542
1489 1491 1494 1497 1499 1501 1503 1505 1507 1509 1511 1513 1515 1518 1520 1521 1523 1524 1526 1527 1528 1529 1530 1531 1532 1533 1534 1534 1535 1536 1537 1538 1539 1540 1540 1541 1542 1543 1543 1544 1545 1545 1546 1547 1548 1548 1548 1549 1549 1550 1550 1551 1551 1551 1551 1552 1552 1552 1553 1553 1552 1552 1551 1551 1550 1550 1550 1549 1549 1548 1548 1547 1547 1546 1546 1546 1545 1545 1544 1544 1543 1543 1542 1542 1541
1488 1491 1494 1496 1499 1501 1503 1505 1507 1509 1511 1513 1515 1517 1519 1521 1522 1524 1525 1527 1528 1529 1530 1531 1533 1533 1534 1535 1536 1537 1538 1538 1539 1540 1541 1542 1542 1543 1544 1544 1545 1545 1546 1547 1548 1548 1549 1549 1550 1550 1550 1551 1551 1551 1552 1552 1552 1552 1553 1552 1552 1552 1551 1551 1550 1549 1549 1549 1548 1548 1547 1547 1546 1546 1546 1545 1545 1544 1544 1543 1543 1543 1542 1542 1541
1488 1490 1493 1496 1498 1501 1503 1505 1507 1509 1511 1512 1515 1517 1519 1520 1522 1524 1525 1527 1528 1529 1530 1532 1533 1534 1535 1536 1536 1537 1538 1539 1540 1540 1541 1542 1542 1543 1544 1544 1545 1546 1546 1547 1548 1548 1548 1549 1549 1550 1550 1550 1551 1551 1551 1551 1552 1552 1552 1552 1551 1551 1551 1550 1549 1549 1548 1548 1548 1547 1547 1546 1546 1546 1545 1545 1544 1544 1543 1543 1542 1542 1542 1541 1541
1487 1490 1492 1495 1498 1500 1502 1504 1506 1508 1510 1512 1514 1516 1518 1519 1521 1523 1525 1526 1528 1529 1530 1531 1533 1534 1536 1536 1537 1538 1539 1540 1540 1541 1541 1542 1543 1543 1544 1545 1545 1546 1546 1547 1547 1548 1548 1549 1549 1549 1550 1550 1550 1550 1550 1551 1551 1551 1551 1551 1550 1550 1549 1549 1548 1548 1547 1547 1547 1546 1546 1546 1545 1545 1544 1544 1543 1543 1543 1542 1542 1541 1541 1541 1540
1487 1490 1492 1495 1497 1499 1502 1503 1505 1507 1509 1511 1513 1515 1517 1518 1520 1522 1524 1526 1527 1529 1530 1532 1533 1535 1536 1537 1538 1539 1540 1540 1541 1541 1542 1542 1543 1544 1544 1545 1545 1545 1546 1546 1547 1548 1548 1548 1549 1549 1549 1549 1549 1549 1550 1550 1550 1550 1550 1549 1549 1549 1548 1548 1547 1547 1546 1546 1546 1545 1545 1545 1544 1544 1543 1543 1542 1542 1541 1541 1541 1541 1540 1540 1540
1488 1491 1492 1494 1496 1498 1500 1502 1504 1506 1508 1510 1511 1513 1515 1517 1519 1521 1523 1525 1527 1528 1530 1532 1533 1535 1536 1537 1539 1540 1540 1541 1541 1542 1542 1543 1543 1544 1545 1545 1545 1546 1546 1546 1547 1547 1548 1548 1548 1548 1549 1549 1549 1549 1549 1549 1549 1549 1548 1548 1548 1547 1547 1547 1546 1546 1545 1545 1544 1544 1544 1543 1543 1542 1542 1541 1541 1541 1540 1540 1540 1539 1539 1539 1539
1488 1490 1491 1493 1495 1497 1499 1501 1503 1505 1507 1508 1510 1511 1513 1516 1518 1520 1522 1524 1526 1528 1530 1531 1533 1534 1536 1537 1539 1540 1541 1541 1542 1542 1542 1543 1544 1544 1545 1545 1546 1546 1546 1546 1546 1547 1547 1548 1548 1548 1548 1548 1549 1549 1549 1548 1548 1547 1547 1546 1546 1546 1546 1545 1545 1544 1544 1543 1543 1543 1543 1542 1542 1541 1541 1540 1540 1539 1539 1539 1539 1538 1538 1537 1537
1488 1489 1491 1492 1494 1496 1498 1500 1502 1504 1506 1507 1508 1510 1512 1515 1517 1519 1521 1523 1525 1528 1529 1531 1533 1534 1536 1537 1539 1540 1540 1541 1541 1542 1542 1543 1544 1544 1545 1545 1546 1546 1546 1546 1546 1547 1547 1547 1547 1547 1548 1548 1548 1548 1548 1548 1547 1547 1546 1545 1545 1544 1544 1544 1544 1543 1542 1542 1542 1541 1541 1541 1540 1540 1539 1539 1539 1538 1538 1538 1537 1537 1536 1536 1535
1487 1488 1490 1492 1493 1494 1496 1499 1501 1503 1504 1506 1507 1509 1512 1514 1516 1518 1520 1522 1525 1527 1529 1531 1532 1534 1536 1537 1538 1539 1540 1541 1541 1542 1542 1543 1543 1544 1545 1545 1546 1546 1546 1546 1546 1546 1546 1546 1546 1546 1546 1546 1547 1547 1547 1546 1546 1546 1545 1544 1544 1543 1543 1542 1542 1542 1541 1541 1540 1540 1540 1539 1539 1538 1538 1537 1537 1537 1537 1536 1536 1536 1535 1534 1533
1484 1486 1488 1491 1492 1493 1495 1498 1500 1502 1503 1505 1507 1509 1512 1514 1516 1518 1520 1522 1524 1526 1528 1530 1532 1533 1535 1536 1537 1539 1539 1540 1541 1541 1542 1542 1543 1544 1544 1544 1545 1545 1545 1545 1545 1545 1545 1545 1545 1545 1545 1545 1545 1545 1545 1545 1545 1544 1544 1543 1543 1542 1542 1541 1541 1540 1540 1539 1539 1538 1538 1538 1537 1536 1536 1536 1535 1535 1535 1535 1535 1534 1533 1532 1531
1481 1484 1487 1489 1490 1492 1494 1496 1498 1500 1502 1504 1507 1510 1512 1514 1516 1518 1520 1522 1523 1525 1527 1529 1531 1533 1534 1535 1537 1538 1539 1540 1540 1541 1541 1542 1543 1543 1544 1544 1544 1545 1545 1545 1545 1544 1544 1544 1544 1544 1544 1544 1545 1545 1544 1544 1544 1543 1542 1542 1541 1541 1540 1540 1539 1539 1538 1538 1537 1537 1536 1536 1535 1535 1534 1534 1534 1534 1533 1533 1533 1531 1530 1530 1530
1480 1483 1485 1487 1489 1491 1493 1495 1497 1499 1501 1503 1506 1508 1511 1514 1517 1518 1520 1521 1523 1525 1527 1529 1530 1532 1533 1534 1536 1537 1539 1539 1540 1541 1541 1542 1543 1543 1543 1544 1544 1544 1544 1544 1544 1544 1544 1544 1544 1544 1544 1544 1544 1544 1543 1543 1542 1542 1541 1540 1540 1539 1539 1539 1538 1538 1537 1537 1536 1535 1535 1534 1533 1533 1533 1532 1532 1532 1532 1531 1530 1529 1528 1528 1528
1482 1483 1484 1486 1489 1491 1492 1494 1496 1498 1500 1502 1504 1507 1510 1513 1516 1518 1520 1521 1523 1525 1526 1528 1529 1531 1532 1533 1535 1536 1538 1539 1540 1540 1541 1541 1542 1543 1543 1544 1544 1544 1544 1544 1544 1544 1544 1543 1543 1543 1543 1543 1543 1542 1542 1541 1541 1540 1539 1539 1538 1538 1538 1537 1537 1536 1536 1535 1535 1534 1533 1532 1532 1531 1531 1530 1529 1529 1529 1529 1528 1527 1526 1526 1525
1484 1485 1487 1488 1490 1491 1493 1494 1496 1498 1500 1501 1504 1506 1509 1512 1515 1517 1519 1521 1523 1524 1526 1527 1529 1530 1531 1532 1534 1535 1537 1538 1539 1540 1541 1541 1542 1543 1543 1543 1544 1544 1544 1544 1544 1543 1543 1542 1542 1542 1542 1542 1541 1541 1541 1540 1539 1539 1538 1538 1537 1536 1536 1536 1535 1535 1534 1533 1533 1532 1532 1531 1530 1530 1529 1528 1527 1527 1527 1526 1525 1524 1524 1524 1523
1488 1490 1491 1491 1492 1493 1494 1495 1497 1498 1499 1501 1503 1505 1508 1510 1513 1516 1518 1520 1522 1524 1526 1527 1529 1530 1531 1532 1533 1534 1536 1538 1539 1540 1540 1541 1541 1542 1542 1543 1543 1543 1543 1543 1543 1542 1542 1541 1541 1541 1541 1541 1541 1540 1540 1539 1538 1538 1537 1537 1536 1535 1535 1534 1534 1533 1532 1532 1531 1530 1530 1529 1529 1528 1527 1527 1526 1525 1524 1523 1522 1522 1522 1522 1521
1490 1494 1496 1496 1495 1495 1496 1498 1499 1499 1499 1501 1502 1504 1507 1510 1512 1515 1517 1519 1522 1524 1526 1527 1528 1529 1530 1531 1532 1534 1535 1537 1538 1539 1540 1540 1541 1541 1542 1542 1542 1542 1542 1542 1542 1541 1541 1540 1540 1540 1540 1540 1539 1539 1538 1538 1537 1537 1536 1535 1535 1534 1534 1533 1532 1531 1530 1530 1529 1529 1528 1527 1527 1526 1526 1525 1524 1523 1522 1521 1521 1520 1519 1519 1518
1486 1490 1495 1498 1498 1498 1499 1500 1501 1501 1500 1501 1502 1504 1506 1509 1511 1514 1516 1518 1521 1523 1525 1526 1528 1529 1530 1531 1532 1533 1535 1536 1538 1539 1540 1540 1540 1540 1540 1541 1541 1541 1541 1541 1541 1540 1540 1540 1540 1540 1539 1539 1538 1538 1537 1537 1536 1535 1534 1534 1533 1533 1532 1532 1531 1530 1529 1528 1528 1527 1527 1526 1525 1525 1524 1523 1522 1521 1520 1520 1519 1518 1516 1516 1515
1482 1483 1486 1493 1498 1499 1499 1500 1501 1501 1501 1502 1502 1503 1505 1508 1510 1512 1514 1516 1519 1521 1523 1526 1528 1529 1530 1530 1531 1533 1534 1536 1537 1538 1539 1539 1539 1539 1539 1539 1540 1540 1539 1539 1540 1539 1539 1539 1539 1539 1538 1538 1538 1537 1536 1535 1535 1534 1533 1532 1532 1531 1531 1530 1529 1528 1528 1527 1526 1526 1525 1524 1524 1523 1522 1521 1520 1519 1519 1518 1516 1515 1514 1513 1512
1482 1482 1481 1486 1495 1500 1500 1500 1500 1500 1501 1501 1501 1502 1503 1505 1507 1510 1512 1515 1517 1519 1522 1524 1527 1528 1529 1530 1531 1533 1534 1535 1537 1538 1538 1538 1538 1538 1538 1538 1538 1538 1538 1538 1538 1538 1538 1538 1538 1538 1538 1537 1537 1536 1535 1534 1533 1532 1531 1530 1530 1530 1529 1528 1527 1527 1526 1525 1525 1525 1524 1523 1522 1522 1520 1519 1518 1517 1516 1515 1514 1513 1511 1510 1510
1479 1480 1480 1481 1487 1495 1497 1498 1500 1500 1500 1501 1502 1502 1502 1503 1505 1508 1511 1514 1517 1518 1521 1523 1526 1528 1529 1530 1531 1532 1533 1535 1536 1537 1538 1537 1537 1537 1537 1537 1538 1537 1537 1537 1537 1537 1537 1537 1537 1537 1537 1536 1536 1536 1535 1534 1532 1531 1528 1527 1526 1526 1526 1526 1525 1525 1525 1524 1523 1523 1522 1521 1520 1520 1519 1517 1516 1515 1514 1513 1511 1510 1509 1508 1507
1477 1478 1480 1481 1481 1485 1491 1495 1497 1498 1499 1501 1502 1502 1503 1504 1506 1509 1512 1515 1517 1519 1520 1522 1525 1526 1528 1529 1530 1532 1533 1534 1536 1536 1537 1537 1536 1536 1536 1537 1537 1537 1537 1536 1536 1536 1536 1536 1536 1536 1536 1535 1535 1535 1534 1533 1532 1530 1528 1526 1524 1523 1523 1523 1523 1523 1523 1522 1522 1521 1521 1520 1519 1518 1517 1516 1515 1513 1512 1511 1509 1508 1507 1506 1504
1474 1475 1478 1480 1479 1480 1485 1490 1493 1496 1498 1499 1501 1503 1503 1505 1507 1510 1513 1516 1518 1519 1520 1522 1524 1525 1527 1528 1530 1531 1532 1534 1534 1535 1536 1536 1536 1536 1536 1536 1536 1536 1536 1536 1535 1535 1535 1535 1535 1534 1534 1534 1534 1534 1533 1532 1531 1529 1528 1526 1524 1522 1521 1521 1521 1520 1521 1520 1520 1520 1519 1518 1517 1516 1515 1514 1512 1511 1510 1509 1507 1506 1505 1503 1502
1471 1472 1473 1476 1476 1477 1480 1485 1488 1492 1496 1497 1499 1501 1502 1504 1506 1509 1513 1515 1517 1518 1519 1520 1522 1524 1526 1527 1529 1530 1532 1533 1534 1534 1535 1536 1535 1535 1535 1535 1535 1535 1535 1534 1534 1534 1533 1534 1533 1533 1533 1533 1533 1532 1532 1531 1530 1529 1528 1527 1525 1523 1522 1521 1519 1518 1518 1519 1518 1518 1518 1517 1515 1514 1512 1511 1510 1508 1507 1506 1505 1504 1502 1501 1500
1467 1469 1471 1473 1474 1475 1477 1480 1484 1489 1493 1495 1497 1500 1501 1502 1505 1507 1510 1512 1514 1516 1517 1519 1521 1523 1525 1527 1529 1530 1531 1533 1533 1534 1535 1535 1535 1535 1534 1534 1534 1534 1534 1533 1533 1533 1532 1532 1532 1532 1531 1531 1531 1531 1531 1530 1530 1529 1528 1527 1526 1525 1522 1521 1519 1517 1516 1517 1517 1516 1516 1515 1514 1512 1511 1509 1508 1507 1505 1504 1503 1502 1501 1499 1498
1464 1467 1470 1472 1474 1474 1475 1477 1481 1486 1490 1493 1496 1498 1500 1502 1504 1506 1509 1511 1513 1515 1517 1520 1521 1523 1525 1527 1528 1529 1530 1532 1532 1533 1534 1534 1534 1534 1533 1533 1533 1533 1533 1532 1532 1532 1532 1531 1531 1531 1530 1530 1530 1529 1529 1529 1528 1528 1527 1526 1526 1525 1523 1521 1520 1517 1514 1513 1514 1514 1514 1513 1512 1511 1510 1508 1506 1505 1503 1502 1501 1499 1499 1498 1496
1463 1465 1467 1470 1473 1474 1475 1476 1479 1483 1487 1491 1494 1497 1499 1501 1504 1506 1509 1511 1514 1516 1518 1520 1521 1523 1525 1526 1527 1528 1529 1531 1532 1533 1533 1533 1533 1532 1532 1532 1531 1532 1532 1532 1531 1531 1531 1531 1530 1529 1529 1529 1528 1528 1528 1527 1527 1526 1525 1525 1524 1524 1523 1522 1520 1519 1516 1513 1511 1511 1511 1511 1510 1509 1508 1507 1505 1503 1501 1500 1499 1497 1496 1495 1495
1461 1463 1465 1468 1472 1474 1475 1477 1479 1482 1486 1490 1493 1496 1499 1501 1504 1506 1509 1512 1514 1517 1518 1520 1521 1522 1524 1525 1526 1527 1529 1530 1531 1532 1532 1532 1532 1531 1531 1530 1530 1531 1531 1531 1530 1530 1530 1529 1529 1528 1528 1528 1527 1527 1527 1526 1526 1525 1524 1524 1523 1522 1522 1521 1520 1519 1517 1515 1512 1510 1509 1508 1507 1507 1507 1506 1504 1503 1500 1498 1497 1496 1494 1493 1492
1460 1462 1465 1468 1471 1474 1476 1478 1480 1482 1486 1489 1492 1495 1498 1501 1503 1505 1508 1511 1513 1515 1517 1519 1520 1521 1523 1524 1525 1527 1528 1530 1530 1531 1531 1531 1531 1530 1530 1530 1530 1530 1530 1530 1529 1529 1529 1528 1528 1527 1527 1527 1526 1526 1526 1525 1525 1524 1523 1522 1522 1521 1521 1520 1519 1518 1517 1515 1513 1510 1509 1508 1505 1504 1505 1505 1503 1502 1500 1497 1496 1494 1493 1492 1491
1460 1463 1465 1468 1471 1473 1476 1478 1480 1483 1486 1489 1492 1495 1498 1500 1502 1505 1508 1510 1512 1514 1516 1518 1519 1520 1522 1523 1525 1526 1528 1529 1530 1530 1531 1531 1530 1530 1530 1529 1529 1529 1529 1529 1528 1528 1528 1527 1526 1526 1526 1525 1525 1525 1525 1524 1524 1523 1522 1522 1521 1521 1520 1520 1519 1518 1516 1515 1513 1511 1509 1508 1505 1502 1502 1502 1501 1500 1499 1497 1495 1493 1492 1491 1490